Weather History for KPPO - December, 2012

Change the Weather History Date:

Monday, December 31, 2012

  Actual Average (KVPZ) Record (KVPZ)
Temperature  
Mean Temperature 30 °F 25 °F  
Max Temperature 34 °F 32 °F 57 °F (2004)
Min Temperature 25 °F 17 °F 3 °F (1998)
Degree Days  
Heating Degree Days 36 41  
Month to date heating degree days 1144  
Since 1 July heating degree days 2402  
Cooling Degree Days 0 0  
Month to date cooling degree days 0  
Year to date cooling degree days 713  
Moisture  
Dew Point 23 °F    
Average Humidity 76    
Maximum Humidity 81    
Minimum Humidity 68    
Precipitation  
Precipitation 0.00 in 0.07 in 0.45 in (2006)
Month to date precipitation 2.18  
Year to date precipitation 37.51  
Sea Level Pressure  
Sea Level Pressure 30.05 in    
Wind  
Wind Speed 10 mph (WSW)    
Max Wind Speed 15 mph    
Max Gust Speed 21 mph    
Visibility 10 miles    
Events Snow    
T = Trace of Precipitation, MM = Missing Value Source: NWS Daily Summary

Daily Weather History Graph

Daily Weather History Graph

Search for Another Location

Airport or City:

Trip Planner

Search our weather history database for the weather conditions in past years. The results will help you decide how hot, cold, wet, or windy it might be!

Date:

Astronomy

Dec. 31, 2012 Rise Set
Actual Time 7:13 AM CST 4:27 PM CST
Civil Twilight 6:42 AM CST 4:58 PM CST
Nautical Twilight 6:07 AM CST 5:33 PM CST
Astronomical Twilight 5:33 AM CST 6:06 PM CST
Moon 8:00 PM CST (12/31) 8:52 AM CST (12/31)
Length of Visible Light 10h 16m
Length of Day
9h 13m
Waning Gibbous, 90% of the Moon is Illuminated
Dec 31
Waning Gibbous
Jan 4
Last Quarter
Jan 11
New
Jan 18
First Quarter
Jan 26
Full

Hourly Weather History & Observations

Time (CST) Temp. Windchill Dew Point Humidity Pressure Visibility Wind Dir Wind Speed Gust Speed Precip Events Conditions
12:15 AM 25.3 °F 16.7 °F 19.6 °F 79% 30.13 in 10.0 mi SSW 8.1 mph - N/A   Scattered Clouds
12:35 AM 25.5 °F 15.5 °F 19.9 °F 79% 30.11 in 10.0 mi SSW 10.4 mph 17.3 mph N/A   Clear
12:55 AM 25.3 °F 14.7 °F 19.9 °F 80% 30.11 in 10.0 mi SSW 11.5 mph - N/A   Clear
1:15 AM 25.7 °F 16.4 °F 20.3 °F 80% 30.11 in 10.0 mi SSW 9.2 mph 16.1 mph N/A   Clear
1:35 AM 25.7 °F 15.7 °F 20.3 °F 80% 30.10 in 10.0 mi SSW 10.4 mph - N/A   Clear
1:55 AM 25.7 °F 15.7 °F 20.3 °F 80% 30.09 in 10.0 mi SSW 10.4 mph 16.1 mph N/A   Clear
2:15 AM 25.7 °F 15.7 °F 20.3 °F 80% 30.10 in 10.0 mi SSW 10.4 mph 16.1 mph N/A   Clear
2:35 AM 26.1 °F 15.6 °F 20.3 °F 79% 30.09 in 10.0 mi SSW 11.5 mph - N/A   Clear
2:55 AM 25.7 °F 15.1 °F 20.3 °F 80% 30.09 in 10.0 mi SSW 11.5 mph - N/A   Mostly Cloudy
3:15 AM 25.7 °F 17.1 °F 20.1 °F 79% 30.08 in 10.0 mi SSW 8.1 mph - N/A   Overcast
3:35 AM 25.7 °F 18.0 °F 20.1 °F 79% 30.07 in 10.0 mi SSW 6.9 mph - N/A   Mostly Cloudy
3:55 AM 25.7 °F 15.7 °F 20.3 °F 80% 30.08 in 10.0 mi SSW 10.4 mph - N/A   Mostly Cloudy
4:15 AM 26.2 °F 17.1 °F 20.8 °F 80% 30.08 in 10.0 mi SW 9.2 mph - N/A   Scattered Clouds
4:35 AM 27.1 °F 16.4 °F 21.2 °F 78% 30.08 in 10.0 mi SW 12.7 mph 16.1 mph N/A   Clear
4:55 AM 28.0 °F 18.1 °F 21.9 °F 78% 30.06 in 10.0 mi SW 11.5 mph - N/A   Scattered Clouds
5:15 AM 28.4 °F 18.0 °F 22.1 °F 77% 30.07 in 10.0 mi SW 12.7 mph - N/A   Clear
5:35 AM 28.8 °F 19.5 °F 22.3 °F 77% 30.05 in 10.0 mi SW 10.4 mph - N/A   Scattered Clouds
5:55 AM 28.9 °F 19.8 °F 22.5 °F 77% 30.05 in 10.0 mi SW 10.4 mph - N/A   Mostly Cloudy
6:15 AM 29.3 °F 18.6 °F 22.8 °F 77% 30.04 in 10.0 mi SW 13.8 mph - N/A   Mostly Cloudy
6:35 AM 29.3 °F 20.2 °F 22.8 °F 77% 30.04 in 10.0 mi SW 10.4 mph - N/A   Overcast
6:55 AM 29.3 °F 20.8 °F 22.8 °F 77% 30.04 in 10.0 mi SW 9.2 mph - N/A   Mostly Cloudy
7:15 AM 29.3 °F 20.2 °F 22.8 °F 77% 30.04 in 10.0 mi SW 10.4 mph - N/A   Scattered Clouds
7:35 AM 29.3 °F 20.2 °F 23.0 °F 77% 30.05 in 10.0 mi SW 10.4 mph - N/A   Clear
7:55 AM 29.8 °F 20.9 °F 23.0 °F 76% 30.05 in 10.0 mi SW 10.4 mph - N/A   Scattered Clouds
8:15 AM 30.2 °F 21.3 °F 23.2 °F 75% 30.05 in 10.0 mi SW 10.4 mph - N/A   Scattered Clouds
8:35 AM 30.9 °F 22.2 °F 23.5 °F 74% 30.05 in 10.0 mi WSW 10.4 mph 17.3 mph N/A   Scattered Clouds
8:55 AM 31.3 °F 22.1 °F 23.7 °F 74% 30.05 in 10.0 mi WSW 11.5 mph - N/A   Mostly Cloudy
9:15 AM 31.6 °F 22.6 °F 23.9 °F 73% 30.05 in 10.0 mi SW 11.5 mph - N/A   Mostly Cloudy
9:35 AM 32.0 °F 23.0 °F 23.9 °F 72% 30.04 in 10.0 mi SW 11.5 mph - N/A   Scattered Clouds
9:55 AM 32.2 °F 23.8 °F 24.4 °F 73% 30.04 in 10.0 mi WSW 10.4 mph - N/A   Scattered Clouds
10:15 AM 32.5 °F 23.2 °F 24.6 °F 73% 30.04 in 10.0 mi WSW 12.7 mph - N/A   Mostly Cloudy
10:35 AM 33.1 °F 23.0 °F 24.8 °F 72% 30.03 in 10.0 mi SW 15.0 mph - N/A   Mostly Cloudy
10:55 AM 33.3 °F 24.1 °F 25.0 °F 72% 30.03 in 10.0 mi SW 12.7 mph 17.3 mph N/A   Mostly Cloudy
11:15 AM 33.6 °F 25.0 °F 25.0 °F 71% 30.02 in 10.0 mi WSW 11.5 mph - N/A   Overcast
11:35 AM 34.0 °F 24.6 °F 25.0 °F 70% 30.01 in 10.0 mi WSW 13.8 mph 17.3 mph N/A   Overcast
11:55 AM 34.2 °F 25.2 °F 25.3 °F 70% 30.00 in 10.0 mi WSW 12.7 mph 19.6 mph N/A   Overcast
12:15 PM 34.2 °F 25.7 °F 25.5 °F 71% 30.00 in 10.0 mi WSW 11.5 mph 17.3 mph N/A   Overcast
12:35 PM 34.5 °F 25.7 °F 25.0 °F 68% 29.99 in 10.0 mi WSW 12.7 mph 18.4 mph N/A   Overcast
12:55 PM 34.3 °F 25.5 °F 25.3 °F 70% 30.00 in 10.0 mi WSW 12.7 mph - N/A   Overcast
1:15 PM 34.0 °F 24.2 °F 25.5 °F 71% 30.00 in 10.0 mi WSW 15.0 mph 20.7 mph N/A   Overcast
1:35 PM 34.0 °F 25.0 °F 25.5 °F 71% 30.00 in 10.0 mi West 12.7 mph 18.4 mph N/A   Overcast
1:55 PM 33.8 °F 25.8 °F 25.5 °F 72% 30.00 in 10.0 mi West 10.4 mph 16.1 mph N/A   Overcast
2:15 PM 33.8 °F 26.4 °F 25.7 °F 72% 30.00 in 10.0 mi West 9.2 mph - N/A   Overcast
2:35 PM 33.6 °F 25.6 °F 26.1 °F 74% 29.99 in 7.0 mi West 10.4 mph - N/A Snow Light Snow
2:55 PM 32.9 °F 24.7 °F 26.8 °F 78% 30.00 in 5.0 mi West 10.4 mph - N/A Snow Light Snow
3:15 PM 32.7 °F 25.0 °F 26.2 °F 77% 30.01 in 10.0 mi West 9.2 mph - N/A   Overcast
3:35 PM 32.0 °F 23.6 °F 25.7 °F 78% 30.01 in 10.0 mi WSW 10.4 mph - N/A   Mostly Cloudy
3:55 PM 32.0 °F 24.2 °F 26.2 °F 79% 30.02 in 10.0 mi WSW 9.2 mph - N/A   Mostly Cloudy
4:15 PM 31.6 °F 23.7 °F 25.5 °F 78% 30.01 in 10.0 mi WSW 9.2 mph - N/A   Overcast
4:35 PM 31.1 °F 25.4 °F 25.7 °F 80% 30.01 in 10.0 mi WSW 5.8 mph - N/A   Overcast
4:55 PM 30.9 °F - 25.7 °F 81% 30.02 in 10.0 mi Calm Calm - N/A   Overcast
5:15 PM 30.9 °F - 24.8 °F 78% 30.02 in 10.0 mi Calm Calm - N/A   Mostly Cloudy
5:35 PM 30.2 °F - 23.9 °F 77% 30.03 in 10.0 mi Calm Calm - N/A   Scattered Clouds
5:55 PM 29.7 °F 26.1 °F 23.0 °F 76% 30.03 in 10.0 mi West 3.5 mph - N/A   Overcast
6:15 PM 29.5 °F 25.9 °F 22.6 °F 76% 30.04 in 10.0 mi West 3.5 mph - N/A   Overcast
6:35 PM 29.7 °F 24.7 °F 23.4 °F 77% 30.04 in 10.0 mi West 4.6 mph - N/A   Overcast
6:55 PM 29.8 °F 24.9 °F 23.5 °F 77% 30.05 in 10.0 mi West 4.6 mph - N/A   Overcast
7:15 PM 30.0 °F 23.2 °F 24.1 °F 79% 30.05 in 10.0 mi NW 6.9 mph - N/A   Overcast
7:35 PM 30.2 °F 21.9 °F 23.9 °F 77% 30.05 in 10.0 mi NW 9.2 mph - N/A   Overcast
7:55 PM 29.8 °F 21.5 °F 23.9 °F 79% 30.04 in 10.0 mi NW 9.2 mph - N/A   Overcast
8:35 PM 29.1 °F 25.4 °F 21.9 °F 74% 30.04 in 10.0 mi WNW 3.5 mph - N/A   Overcast
9:15 PM 28.9 °F 19.2 °F 22.5 °F 77% 30.04 in 10.0 mi North 11.5 mph - N/A   Overcast
9:35 PM 28.4 °F 19.1 °F 22.1 °F 77% 30.05 in 10.0 mi NNW 10.4 mph - N/A   Overcast
9:55 PM 28.4 °F 19.1 °F 21.2 °F 74% 30.06 in 10.0 mi NNW 10.4 mph - N/A   Overcast
10:15 PM 28.2 °F 22.0 °F 20.8 °F 74% 30.07 in 10.0 mi NNW 5.8 mph - N/A   Overcast
10:35 PM 27.9 °F 18.4 °F 21.9 °F 78% 30.07 in 10.0 mi NNW 10.4 mph - N/A   Overcast
10:55 PM 27.5 °F 19.3 °F 21.0 °F 77% 30.08 in 10.0 mi NW 8.1 mph - N/A   Overcast
11:15 PM 27.3 °F 18.4 °F 20.8 °F 77% 30.08 in 10.0 mi NW 9.2 mph - N/A   Overcast
11:35 PM 27.3 °F 19.1 °F 21.0 °F 77% 30.07 in 10.0 mi NNW 8.1 mph - N/A   Overcast
11:55 PM 27.1 °F 18.9 °F 20.3 °F 75% 30.08 in 10.0 mi NNW 8.1 mph - N/A   Overcast